time,readable_time,acceleration,acceleration_x,acceleration_y,acceleration_z,battery,humidity,pressure,temperature,dev-id
1540293722355,2018-10-23T11:22:02.355000Z,1080.6673863867643,193,-393,988,2947,33,987.48,27.19,EE:B4:42:EE:C1:16
1540293727521,2018-10-23T11:22:07.520999Z,1056.4960955914603,180,-322,990,2941,33,987.49,27.19,EE:B4:42:EE:C1:16
1540293732405,2018-10-23T11:22:12.404999Z,1054.0336806762866,241,-365,959,2953,33,987.49,27.19,EE:B4:42:EE:C1:16
1540293737525,2018-10-23T11:22:17.525000Z,1044.801895097822,199,-369,957,2953,33,987.49,27.18,EE:B4:42:EE:C1:16
1540293742946,2018-10-23T11:22:22.946000Z,1057.359446924271,232,-237,1004,2953,33,987.48,27.18,EE:B4:42:EE:C1:16
1540293748195,2018-10-23T11:22:28.194999Z,1055.4321389838383,246,-285,986,2947,33,987.48,27.19,EE:B4:42:EE:C1:16
1540293753174,2018-10-23T11:22:33.174000Z,1058.3449343196196,239,-298,987,2947,33,987.48,27.2,EE:B4:42:EE:C1:16
1540293758125,2018-10-23T11:22:38.125000Z,1055.2866909044196,239,-250,997,2953,33,987.48,27.24,EE:B4:42:EE:C1:16
1540293763285,2018-10-23T11:22:43.285000Z,1050.5884065608186,214,-286,988,2953,33,987.47,27.27,EE:B4:42:EE:C1:16
1540293768685,2018-10-23T11:22:48.684999Z,1050.7949371785153,269,-295,972,2953,33,987.46,27.3,EE:B4:42:EE:C1:16
1540293773735,2018-10-23T11:22:53.734999Z,1055.1701284627043,238,-304,982,2947,33,987.47,27.34,EE:B4:42:EE:C1:16
1540293779255,2018-10-23T11:22:59.255000Z,1059.8009247023706,235,-303,988,2953,33,987.46,27.36,EE:B4:42:EE:C1:16
1540293784205,2018-10-23T11:23:04.204999Z,1058.0912058986219,236,-306,985,2953,33,987.47,27.38,EE:B4:42:EE:C1:16
1540293789189,2018-10-23T11:23:09.188999Z,1054.0536039500078,233,-304,982,2947,33,987.47,27.41,EE:B4:42:EE:C1:16
1540293794155,2018-10-23T11:23:14.154999Z,1056.5367953838618,235,-311,982,2953,33,987.47,27.42,EE:B4:42:EE:C1:16
1540293799105,2018-10-23T11:23:19.105000Z,1054.5558306699556,230,-308,982,2953,33.5,987.47,27.45,EE:B4:42:EE:C1:16
1540293804265,2018-10-23T11:23:24.265000Z,1059.4427780677916,235,-305,987,2953,33.5,987.46,27.47,EE:B4:42:EE:C1:16
1540293809275,2018-10-23T11:23:29.275000Z,1056.5831723059005,236,-304,984,2953,33.5,987.46,27.48,EE:B4:42:EE:C1:16
1540293814325,2018-10-23T11:23:34.325000Z,1057.0700071423842,234,-304,985,2953,33.5,987.46,27.5,EE:B4:42:EE:C1:16
1540293819515,2018-10-23T11:23:39.515000Z,1059.3795353885216,235,-308,986,2965,33.5,987.46,27.52,EE:B4:42:EE:C1:16
1540293824635,2018-10-23T11:23:44.634999Z,1052.4423974736098,237,-305,979,2947,33.5,987.45,27.54,EE:B4:42:EE:C1:16
1540293829705,2018-10-23T11:23:49.704999Z,1059.3776474893173,236,-304,987,2953,33.5,987.44,27.55,EE:B4:42:EE:C1:16
1540293835169,2018-10-23T11:23:55.168999Z,1059.186008215743,237,-309,985,2947,33.5,987.44,27.57,EE:B4:42:EE:C1:16
1540293840405,2018-10-23T11:24:00.404999Z,1061.4631411405674,236,-308,988,2953,33.5,987.43,27.59,EE:B4:42:EE:C1:16
1540293845460,2018-10-23T11:24:05.460000Z,1058.8512643426366,231,-306,987,2959,33.5,987.44,27.6,EE:B4:42:EE:C1:16
1540293850455,2018-10-23T11:24:10.454999Z,1060.242425108522,236,-307,987,2947,33.5,987.44,27.62,EE:B4:42:EE:C1:16
1540293855465,2018-10-23T11:24:15.464999Z,1060.1598936009605,233,-309,987,2953,33.5,987.45,27.63,EE:B4:42:EE:C1:16
1540293860441,2018-10-23T11:24:20.440999Z,1053.6327633478375,234,-305,981,2959,33.5,987.44,27.65,EE:B4:42:EE:C1:16
1540293865505,2018-10-23T11:24:25.505000Z,1055.9976325731038,231,-309,983,2953,33.5,987.44,27.66,EE:B4:42:EE:C1:16
1540293870546,2018-10-23T11:24:30.546000Z,1058.6472500318507,233,-307,986,2953,33.5,987.44,27.67,EE:B4:42:EE:C1:16
1540293875555,2018-10-23T11:24:35.555000Z,1058.1890190320441,238,-308,984,2953,33.5,987.44,27.69,EE:B4:42:EE:C1:16
1540293880489,2018-10-23T11:24:40.489000Z,1057.0950761402685,237,-305,984,2947,33.5,987.44,27.7,EE:B4:42:EE:C1:16
1540293885445,2018-10-23T11:24:45.444999Z,1061.1734071300505,236,-307,988,2959,33.5,987.43,27.71,EE:B4:42:EE:C1:16
1540293890616,2018-10-23T11:24:50.615999Z,1060.0490554686608,238,-308,986,2947,33.5,987.43,27.73,EE:B4:42:EE:C1:16
1540293895655,2018-10-23T11:24:55.654999Z,1058.1583057369062,235,-307,985,2947,33.5,987.43,27.74,EE:B4:42:EE:C1:16
1540293900685,2018-10-23T11:25:00.684999Z,1051.7860999271668,233,-309,978,2947,33.5,987.44,27.76,EE:B4:42:EE:C1:16
1540293905602,2018-10-23T11:25:05.601999Z,1055.5363565505454,236,-310,981,2947,33.5,987.43,27.78,EE:B4:42:EE:C1:16
1540293910665,2018-10-23T11:25:10.664999Z,1057.6469165085293,234,-306,985,2953,33.5,987.43,27.79,EE:B4:42:EE:C1:16
1540293915635,2018-10-23T11:25:15.634999Z,1055.7603894823862,237,-310,981,2953,33.5,987.43,27.8,EE:B4:42:EE:C1:16
1540293920586,2018-10-23T11:25:20.585999Z,1058.1583057369062,235,-307,985,2947,33.5,987.45,27.82,EE:B4:42:EE:C1:16
1540293925735,2018-10-23T11:25:25.734999Z,1058.868735963056,235,-303,987,2953,33.5,987.44,27.83,EE:B4:42:EE:C1:16
1540293930815,2018-10-23T11:25:30.815000Z,1056.8713261319942,236,-305,984,2953,33.5,987.43,27.84,EE:B4:42:EE:C1:16
1540293935850,2018-10-23T11:25:35.849999Z,1056.657938975523,234,-309,983,2953,33.5,987.42,27.86,EE:B4:42:EE:C1:16
1540293940881,2018-10-23T11:25:40.881000Z,1059.5097923096323,234,-306,987,2953,33.5,987.42,27.87,EE:B4:42:EE:C1:16
1540293945855,2018-10-23T11:25:45.855000Z,1060.2891115162884,238,-312,985,2959,33.5,987.42,27.88,EE:B4:42:EE:C1:16
1540293950832,2018-10-23T11:25:50.832000Z,1059.2289648607614,233,-309,986,2953,33.5,987.4,27.89,EE:B4:42:EE:C1:16
1540293955795,2018-10-23T11:25:55.795000Z,1056.988174011422,232,-302,986,2959,33.5,987.4,27.9,EE:B4:42:EE:C1:16
1540293960895,2018-10-23T11:26:00.894999Z,1059.8929191196628,236,-309,986,2947,33.5,987.39,27.91,EE:B4:42:EE:C1:16
1540293966016,2018-10-23T11:26:06.016000Z,1056.8798417984895,235,-309,983,2947,33.5,987.39,27.93,EE:B4:42:EE:C1:16
1540293971045,2018-10-23T11:26:11.045000Z,1056.7156665820755,234,-306,984,2953,33.5,987.39,27.94,EE:B4:42:EE:C1:16
1540293976515,2018-10-23T11:26:16.515000Z,1055.8830427656276,238,-319,978,2953,33.5,987.38,27.95,EE:B4:42:EE:C1:16
1540293981451,2018-10-23T11:26:21.450999Z,1051.2873061156974,280,-393,934,2947,33.5,987.39,27.96,EE:B4:42:EE:C1:16
1540293986715,2018-10-23T11:26:26.714999Z,1046.2547490931643,238,-407,934,2947,33.5,987.39,27.97,EE:B4:42:EE:C1:16
1540293991895,2018-10-23T11:26:31.894999Z,1061.0174362375012,234,-389,959,2941,33.5,987.39,27.97,EE:B4:42:EE:C1:16
1540293996995,2018-10-23T11:26:36.994999Z,1073.2702362406217,254,-348,983,2959,33.5,987.37,27.97,EE:B4:42:EE:C1:16
1540294002185,2018-10-23T11:26:42.184999Z,1054.3746962062396,284,-297,971,2953,33.5,987.36,27.96,EE:B4:42:EE:C1:16
1540294007236,2018-10-23T11:26:47.236000Z,1063.993421032292,285,-304,979,2947,33,987.36,27.96,EE:B4:42:EE:C1:16
1540294012235,2018-10-23T11:26:52.234999Z,1058.0737214391065,276,-288,980,2947,33,987.36,27.95,EE:B4:42:EE:C1:16
1540294017290,2018-10-23T11:26:57.289999Z,1053.4723536951503,254,-298,978,2953,33,987.34,27.95,EE:B4:42:EE:C1:16
1540294022595,2018-10-23T11:27:02.595000Z,1059.7221333915793,163,-241,1019,2947,33,987.34,27.94,EE:B4:42:EE:C1:16
1540294027675,2018-10-23T11:27:07.674999Z,1043.0651945108705,138,-221,1010,2959,33,987.35,27.94,EE:B4:42:EE:C1:16
1540294032575,2018-10-23T11:27:12.575000Z,1030.2470577487713,119,-152,1012,2941,33,987.35,27.93,EE:B4:42:EE:C1:16
1540294037716,2018-10-23T11:27:17.716000Z,1058.7742913388104,181,-159,1031,2953,33,987.36,27.93,EE:B4:42:EE:C1:16
1540294042805,2018-10-23T11:27:22.805000Z,1048.2461542977394,216,-190,1008,2959,33,987.35,27.92,EE:B4:42:EE:C1:16
1540294047785,2018-10-23T11:27:27.785000Z,1056.4662796322464,201,-218,1014,2959,33,987.36,27.91,EE:B4:42:EE:C1:16
1540294053035,2018-10-23T11:27:33.035000Z,1057.2312897374916,228,-345,973,2947,33,987.37,27.9,EE:B4:42:EE:C1:16
1540294058435,2018-10-23T11:27:38.434999Z,1054.8483303300054,350,-283,954,2953,33,987.37,27.89,EE:B4:42:EE:C1:16
1540294063515,2018-10-23T11:27:43.515000Z,1062.9153305884718,413,-372,906,2947,33,987.38,27.88,EE:B4:42:EE:C1:16
1540294068425,2018-10-23T11:27:48.424999Z,1054.1034104868459,409,-418,877,2953,33,987.37,27.87,EE:B4:42:EE:C1:16
1540294073580,2018-10-23T11:27:53.579999Z,1031.3612364249493,401,-459,832,2947,33,987.37,27.86,EE:B4:42:EE:C1:16
1540294078605,2018-10-23T11:27:58.605000Z,1039.9158619811508,448,-364,865,2953,33,987.36,27.85,EE:B4:42:EE:C1:16
1540294083545,2018-10-23T11:28:03.545000Z,1044.94641010915,431,-266,914,2953,33,987.35,27.84,EE:B4:42:EE:C1:16
1540294088625,2018-10-23T11:28:08.625000Z,1045.9345103781593,363,-277,941,2953,33,987.34,27.83,EE:B4:42:EE:C1:16
1540294093555,2018-10-23T11:28:13.555000Z,1059.9981132058679,374,-298,946,2953,33,987.33,27.83,EE:B4:42:EE:C1:16
1540294098525,2018-10-23T11:28:18.525000Z,1047.8473171221083,320,-272,960,2953,33,987.32,27.82,EE:B4:42:EE:C1:16
1540294103581,2018-10-23T11:28:23.581000Z,1039.8168107892852,231,-317,963,2953,33,987.32,27.8,EE:B4:42:EE:C1:16
1540294108835,2018-10-23T11:28:28.835000Z,1059.5536796217548,253,-238,1001,2959,33,987.33,27.8,EE:B4:42:EE:C1:16
1540294113776,2018-10-23T11:28:33.776000Z,1045.1669723063392,302,-197,981,2953,33,987.32,27.79,EE:B4:42:EE:C1:16
1540294118765,2018-10-23T11:28:38.765000Z,1053.6545923593746,326,-266,966,2959,33,987.32,27.78,EE:B4:42:EE:C1:16
1540294123795,2018-10-23T11:28:43.795000Z,1058.624107037054,372,-226,965,2953,33,987.32,27.77,EE:B4:42:EE:C1:16
1540294128835,2018-10-23T11:28:48.835000Z,1052.221934764715,299,-307,961,2947,33,987.33,27.76,EE:B4:42:EE:C1:16
1540294133985,2018-10-23T11:28:53.984999Z,1061.7273661350168,286,-338,965,2947,33,987.32,27.76,EE:B4:42:EE:C1:16
1540294138895,2018-10-23T11:28:58.894999Z,1090.458160591226,339,-357,973,2947,33,987.31,27.75,EE:B4:42:EE:C1:16
1540294143919,2018-10-23T11:29:03.918999Z,1048.937557722098,297,-331,950,2947,33,987.31,27.74,EE:B4:42:EE:C1:16
1540294148939,2018-10-23T11:29:08.938999Z,1057.3414774801943,261,-333,969,2953,33,987.3,27.74,EE:B4:42:EE:C1:16
1540294154045,2018-10-23T11:29:14.045000Z,1068.2986473828373,267,-322,983,2953,33,987.3,27.74,EE:B4:42:EE:C1:16
1540294159236,2018-10-23T11:29:19.236000Z,1041.3784134501732,224,-393,938,2953,33,987.3,27.75,EE:B4:42:EE:C1:16
1540294164276,2018-10-23T11:29:24.276000Z,1056.4127981049833,262,-400,942,2947,33,987.3,27.76,EE:B4:42:EE:C1:16
1540294169215,2018-10-23T11:29:29.214999Z,1052.9259233203445,269,-376,946,2953,33,987.3,27.76,EE:B4:42:EE:C1:16
1540294174705,2018-10-23T11:29:34.704999Z,1048.8102783630602,287,-353,945,2953,33,987.29,27.76,EE:B4:42:EE:C1:16
1540294179795,2018-10-23T11:29:39.795000Z,1048.4860514093643,273,-363,945,2947,33,987.29,27.75,EE:B4:42:EE:C1:16
1540294185035,2018-10-23T11:29:45.035000Z,1051.7209706000922,396,-274,935,2959,33,987.28,27.75,EE:B4:42:EE:C1:16
1540294189995,2018-10-23T11:29:49.994999Z,1053.1049330432368,345,-286,953,2953,33,987.28,27.74,EE:B4:42:EE:C1:16
1540294195110,2018-10-23T11:29:55.109999Z,1053.7580367427809,335,-255,966,2959,33,987.28,27.74,EE:B4:42:EE:C1:16
1540294200174,2018-10-23T11:30:00.174000Z,1096.4401488453439,394,-304,977,2959,33,987.29,27.73,EE:B4:42:EE:C1:16
1540294205095,2018-10-23T11:30:05.095000Z,1059.3403607906196,336,-341,945,2959,33,987.29,27.72,EE:B4:42:EE:C1:16
1540294210135,2018-10-23T11:30:10.134999Z,1051.891154064906,299,-293,965,2947,33,987.28,27.72,EE:B4:42:EE:C1:16
1540294215210,2018-10-23T11:30:15.210000Z,1059.5546234149517,348,-296,956,2953,33,987.28,27.71,EE:B4:42:EE:C1:16
1540294220434,2018-10-23T11:30:20.434000Z,1043.7217062033346,277,-249,975,2947,33,987.28,27.71,EE:B4:42:EE:C1:16
1540294225619,2018-10-23T11:30:25.618999Z,1049.0238319504472,259,-259,983,2947,33,987.27,27.7,EE:B4:42:EE:C1:16
1540294230800,2018-10-23T11:30:30.799999Z,1044.5463129990933,273,-282,968,2953,33,987.27,27.69,EE:B4:42:EE:C1:16
1540294235905,2018-10-23T11:30:35.904999Z,1036.8350881408287,285,-299,951,2947,33,987.27,27.68,EE:B4:42:EE:C1:16
1540294241395,2018-10-23T11:30:41.394999Z,1046.1080250146254,251,-270,979,2947,33,987.27,27.68,EE:B4:42:EE:C1:16
1540294246435,2018-10-23T11:30:46.434999Z,1057.870975119367,259,-279,987,2953,33,987.26,27.67,EE:B4:42:EE:C1:16
1540294251385,2018-10-23T11:30:51.384999Z,1059.9367905681922,304,-297,971,2953,33,987.26,27.66,EE:B4:42:EE:C1:16
1540294256435,2018-10-23T11:30:56.434999Z,1059.53480358127,277,-299,978,2953,33,987.27,27.66,EE:B4:42:EE:C1:16
1540294261470,2018-10-23T11:31:01.470000Z,1055.1099468775753,332,-323,948,2947,33,987.26,27.66,EE:B4:42:EE:C1:16
1540294266471,2018-10-23T11:31:06.470999Z,1106.5595329669345,413,-296,983,2953,33,987.25,27.65,EE:B4:42:EE:C1:16
1540294271535,2018-10-23T11:31:11.535000Z,1057.920129310337,303,-255,981,2965,33,987.25,27.65,EE:B4:42:EE:C1:16
1540294276485,2018-10-23T11:31:16.484999Z,1050.613630218074,214,-228,1003,2947,33,987.25,27.64,EE:B4:42:EE:C1:16
1540294281595,2018-10-23T11:31:21.595000Z,1062.7031570481006,176,-341,991,2953,33,987.24,27.64,EE:B4:42:EE:C1:16
1540294286555,2018-10-23T11:31:26.555000Z,1051.7551996543682,222,-323,976,2947,33,987.24,27.63,EE:B4:42:EE:C1:16
1540294291635,2018-10-23T11:31:31.634999Z,1058.600491214698,243,-315,981,2947,33,987.24,27.63,EE:B4:42:EE:C1:16
1540294296615,2018-10-23T11:31:36.615000Z,1054.139933784884,251,-293,981,2947,33,987.26,27.63,EE:B4:42:EE:C1:16
1540294301645,2018-10-23T11:31:41.644999Z,1049.698051822523,229,-436,927,2953,33,987.25,27.62,EE:B4:42:EE:C1:16
1540294306659,2018-10-23T11:31:46.658999Z,1059.4644873708603,262,-389,950,2953,33,987.26,27.62,EE:B4:42:EE:C1:16
1540294311681,2018-10-23T11:31:51.680999Z,1103.820184631537,333,-401,973,2947,33,987.26,27.61,EE:B4:42:EE:C1:16
1540294316685,2018-10-23T11:31:56.684999Z,1043.5286292191508,286,-410,916,2953,33,987.26,27.6,EE:B4:42:EE:C1:16
1540294321805,2018-10-23T11:32:01.805000Z,1060.6342442142814,242,-365,966,2947,33,987.26,27.6,EE:B4:42:EE:C1:16
1540294326735,2018-10-23T11:32:06.734999Z,1066.958762089707,238,-331,986,2953,33,987.25,27.59,EE:B4:42:EE:C1:16
1540294331742,2018-10-23T11:32:11.742000Z,1037.822720892157,318,-316,936,2959,33,987.24,27.58,EE:B4:42:EE:C1:16
1540294336821,2018-10-23T11:32:16.821000Z,1058.1724812146647,296,-352,953,2947,33,987.23,27.57,EE:B4:42:EE:C1:16
1540294342225,2018-10-23T11:32:22.224999Z,1053.3285337443394,221,-388,954,2959,33,987.23,27.57,EE:B4:42:EE:C1:16
1540294347145,2018-10-23T11:32:27.144999Z,1164.8665159579443,273,-464,1033,2953,33,987.22,27.56,EE:B4:42:EE:C1:16
1540294352215,2018-10-23T11:32:32.214999Z,1064.8873179825177,302,-334,965,2959,33,987.22,27.55,EE:B4:42:EE:C1:16
1540294357415,2018-10-23T11:32:37.414999Z,1069.9126132539984,266,-319,986,2953,33,987.22,27.54,EE:B4:42:EE:C1:16
1540294362465,2018-10-23T11:32:42.464999Z,1049.099137355474,217,-248,996,2947,33,987.2,27.53,EE:B4:42:EE:C1:16
1540294367700,2018-10-23T11:32:47.700000Z,1049.511314850869,180,-243,1005,2953,33,987.2,27.53,EE:B4:42:EE:C1:16
1540294372885,2018-10-23T11:32:52.884999Z,1050.8634544982522,200,-233,1005,2959,33,987.21,27.52,EE:B4:42:EE:C1:16
1540294377815,2018-10-23T11:32:57.815000Z,1050.644564065317,209,-237,1002,2947,33,987.2,27.52,EE:B4:42:EE:C1:16
1540294382875,2018-10-23T11:33:02.875000Z,1051.949618565452,205,-242,1003,2953,33,987.2,27.51,EE:B4:42:EE:C1:16
1540294387835,2018-10-23T11:33:07.835000Z,1054.9862558346435,196,-258,1004,2959,33,987.2,27.5,EE:B4:42:EE:C1:16
1540294392925,2018-10-23T11:33:12.924999Z,1059.3611282277634,194,-301,997,2947,33,987.2,27.5,EE:B4:42:EE:C1:16
1540294398055,2018-10-23T11:33:18.055000Z,1056.4113782045326,232,-334,975,2953,33,987.2,27.5,EE:B4:42:EE:C1:16
1540294403025,2018-10-23T11:33:23.025000Z,1061.7203021511832,239,-340,977,2941,33,987.2,27.49,EE:B4:42:EE:C1:16
1540294408145,2018-10-23T11:33:28.144999Z,1057.5750564380762,241,-340,972,2947,33,987.2,27.49,EE:B4:42:EE:C1:16
1540294413165,2018-10-23T11:33:33.164999Z,1055.934183555017,238,-337,972,2953,33,987.2,27.48,EE:B4:42:EE:C1:16
1540294418274,2018-10-23T11:33:38.273999Z,1057.1272392668727,242,-335,973,2953,33,987.2,27.48,EE:B4:42:EE:C1:16
1540294423315,2018-10-23T11:33:43.315000Z,1061.0720993410391,240,-343,975,2959,33,987.2,27.47,EE:B4:42:EE:C1:16
1540294428525,2018-10-23T11:33:48.525000Z,1054.154637612528,233,-332,973,2941,33,987.2,27.47,EE:B4:42:EE:C1:16
1540294433635,2018-10-23T11:33:53.634999Z,1059.3210089486568,242,-339,974,2953,33,987.2,27.46,EE:B4:42:EE:C1:16
1540294438725,2018-10-23T11:33:58.724999Z,1055.8049062208415,236,-338,972,2953,33,987.19,27.46,EE:B4:42:EE:C1:16
1540294443691,2018-10-23T11:34:03.690999Z,1058.678893716126,234,-331,978,2953,33,987.18,27.46,EE:B4:42:EE:C1:16
1540294449325,2018-10-23T11:34:09.325000Z,1064.9553981270765,237,-340,981,2947,33,987.18,27.45,EE:B4:42:EE:C1:16
1540294454275,2018-10-23T11:34:14.275000Z,1062.0409596621028,239,-341,977,2941,33,987.19,27.45,EE:B4:42:EE:C1:16
1540294459685,2018-10-23T11:34:19.684999Z,1050.3037655840333,235,-333,968,2947,33,987.19,27.45,EE:B4:42:EE:C1:16
1540294464615,2018-10-23T11:34:24.615000Z,1056.9153230036927,237,-335,974,2947,33,987.18,27.44,EE:B4:42:EE:C1:16
1540294469562,2018-10-23T11:34:29.562000Z,1062.8617031392184,245,-345,975,2947,33,987.18,27.44,EE:B4:42:EE:C1:16
1540294474672,2018-10-23T11:34:34.671999Z,1064.326077853963,245,-341,978,2959,33,987.18,27.43,EE:B4:42:EE:C1:16
1540294479735,2018-10-23T11:34:39.734999Z,1058.3109183978024,243,-338,973,2947,33,987.18,27.43,EE:B4:42:EE:C1:16
1540294484675,2018-10-23T11:34:44.674999Z,1060.068394019933,240,-337,976,2941,33,987.18,27.43,EE:B4:42:EE:C1:16
1540294489615,2018-10-23T11:34:49.615000Z,1056.6711882132493,240,-335,973,2947,33,987.18,27.42,EE:B4:42:EE:C1:16
1540294494745,2018-10-23T11:34:54.744999Z,1058.378476727489,238,-336,975,2947,33,987.19,27.42,EE:B4:42:EE:C1:16
1540294499665,2018-10-23T11:34:59.664999Z,1057.946123391924,240,-339,973,2959,33,987.19,27.42,EE:B4:42:EE:C1:16
1540294504705,2018-10-23T11:35:04.704999Z,1048.8841690100962,237,-330,967,2953,33,987.18,27.41,EE:B4:42:EE:C1:16
1540294509805,2018-10-23T11:35:09.805000Z,1056.3545806214881,240,-334,973,2953,33,987.18,27.41,EE:B4:42:EE:C1:16
1540294514985,2018-10-23T11:35:14.984999Z,1060.6135017054987,241,-338,976,2947,33,987.19,27.41,EE:B4:42:EE:C1:16
1540294519921,2018-10-23T11:35:19.921000Z,1058.921621273265,239,-337,975,2953,33.5,987.18,27.4,EE:B4:42:EE:C1:16
1540294524805,2018-10-23T11:35:24.805000Z,1061.433464707044,238,-334,979,2947,33.5,987.17,27.4,EE:B4:42:EE:C1:16
1540294529915,2018-10-23T11:35:29.914999Z,1060.9868048189855,236,-334,979,2947,33.5,987.17,27.4,EE:B4:42:EE:C1:16
1540294534985,2018-10-23T11:35:34.984999Z,1056.7407439859599,235,-330,976,2959,33.5,987.16,27.4,EE:B4:42:EE:C1:16
1540294540075,2018-10-23T11:35:40.075000Z,1060.5385424396418,238,-337,977,2953,33.5,987.16,27.39,EE:B4:42:EE:C1:16
1540294545035,2018-10-23T11:35:45.035000Z,1057.5509443993703,237,-337,974,2953,33.5,987.16,27.39,EE:B4:42:EE:C1:16
1540294549945,2018-10-23T11:35:49.944999Z,1057.1452123525887,234,-332,976,2953,33.5,987.15,27.39,EE:B4:42:EE:C1:16
1540294554881,2018-10-23T11:35:54.881000Z,1056.9243113865818,233,-332,976,2947,33.5,987.15,27.39,EE:B4:42:EE:C1:16
1540294559855,2018-10-23T11:35:59.855000Z,1055.908139944001,234,-331,975,2953,33.5,987.15,27.39,EE:B4:42:EE:C1:16
1540294564746,2018-10-23T11:36:04.746000Z,1058.604269781678,235,-333,977,2953,33.5,987.15,27.38,EE:B4:42:EE:C1:16
1540294569869,2018-10-23T11:36:09.868999Z,1062.5187057176922,236,-333,981,2947,33.5,987.15,27.38,EE:B4:42:EE:C1:16
1540294574841,2018-10-23T11:36:14.841000Z,1057.3272908612546,236,-337,974,2947,33.5,987.16,27.38,EE:B4:42:EE:C1:16
1540294579865,2018-10-23T11:36:19.865000Z,1063.5915569427957,243,-343,977,2959,33.5,987.15,27.38,EE:B4:42:EE:C1:16
1540294584910,2018-10-23T11:36:24.910000Z,1063.3193311512775,242,-340,978,2953,33.5,987.15,27.37,EE:B4:42:EE:C1:16
1540294589921,2018-10-23T11:36:29.921000Z,1053.8999003700494,241,-340,968,2947,33.5,987.14,27.37,EE:B4:42:EE:C1:16
1540294594955,2018-10-23T11:36:34.954999Z,1058.78656961637,249,-338,972,2953,33.5,987.13,27.37,EE:B4:42:EE:C1:16
1540294599985,2018-10-23T11:36:39.984999Z,1056.42605041716,244,-340,970,2953,33.5,987.13,27.37,EE:B4:42:EE:C1:16
1540294604985,2018-10-23T11:36:44.984999Z,1053.8149742720493,246,-339,967,2965,33.5,987.13,27.37,EE:B4:42:EE:C1:16
1540294609945,2018-10-23T11:36:49.944999Z,1057.7854224747095,250,-337,971,2953,33.5,987.13,27.36,EE:B4:42:EE:C1:16
1540294614835,2018-10-23T11:36:54.835000Z,1057.1877789683344,241,-333,974,2947,33.5,987.13,27.36,EE:B4:42:EE:C1:16
1540294619755,2018-10-23T11:36:59.755000Z,1062.4452927092293,246,-343,975,2953,33.5,987.12,27.36,EE:B4:42:EE:C1:16
1540294624785,2018-10-23T11:37:04.785000Z,1056.1529245331851,243,-337,971,2953,33.5,987.12,27.36,EE:B4:42:EE:C1:16
1540294629895,2018-10-23T11:37:09.894999Z,1065.7100919105533,253,-348,975,2953,33.5,987.12,27.36,EE:B4:42:EE:C1:16
1540294634955,2018-10-23T11:37:14.954999Z,1064.2076864973303,248,-347,975,2947,33.5,987.12,27.35,EE:B4:42:EE:C1:16
1540294639938,2018-10-23T11:37:19.937999Z,1065.2516134697944,246,-346,977,2959,33.5,987.12,27.35,EE:B4:42:EE:C1:16
1540294645035,2018-10-23T11:37:25.035000Z,1055.466721408117,240,-337,971,2947,33.5,987.13,27.35,EE:B4:42:EE:C1:16
1540294649976,2018-10-23T11:37:29.976000Z,1052.0845973589767,236,-335,969,2947,33.5,987.13,27.35,EE:B4:42:EE:C1:16
1540294655155,2018-10-23T11:37:35.154999Z,1060.8425896427802,247,-343,973,2953,33.5,987.12,27.35,EE:B4:42:EE:C1:16
1540294660225,2018-10-23T11:37:40.224999Z,1059.1921449859794,248,-340,972,2953,33.5,987.12,27.35,EE:B4:42:EE:C1:16
1540294665275,2018-10-23T11:37:45.275000Z,1060.7172101931787,249,-344,972,2953,33.5,987.11,27.34,EE:B4:42:EE:C1:16
1540294670262,2018-10-23T11:37:50.262000Z,1060.9736094738644,245,-342,974,2953,33.5,987.11,27.34,EE:B4:42:EE:C1:16
1540294675205,2018-10-23T11:37:55.204999Z,1060.7893287547722,243,-340,975,2953,33.5,987.12,27.34,EE:B4:42:EE:C1:16
1540294680221,2018-10-23T11:38:00.220999Z,1058.453116580985,245,-337,973,2953,33.5,987.11,27.33,EE:B4:42:EE:C1:16
1540294685150,2018-10-23T11:38:05.150000Z,1058.8682637608892,245,-344,971,2953,33.5,987.11,27.33,EE:B4:42:EE:C1:16
1540294690305,2018-10-23T11:38:10.305000Z,1052.4400220440118,207,-291,990,2947,33.5,987.12,27.33,EE:B4:42:EE:C1:16
1540294695275,2018-10-23T11:38:15.275000Z,1056.8604449027316,219,-288,993,2953,33.5,987.11,27.33,EE:B4:42:EE:C1:16
1540294700195,2018-10-23T11:38:20.194999Z,1055.3643920466523,225,-295,988,2959,33.5,987.1,27.33,EE:B4:42:EE:C1:16
1540294705175,2018-10-23T11:38:25.174999Z,1059.0018885724426,228,-299,990,2959,33.5,987.1,27.33,EE:B4:42:EE:C1:16
1540294710055,2018-10-23T11:38:30.055000Z,1057.9210745608577,232,-302,987,2959,33.5,987.09,27.32,EE:B4:42:EE:C1:16
1540294715005,2018-10-23T11:38:35.005000Z,1059.0722354967106,228,-309,987,2947,33.5,987.09,27.32,EE:B4:42:EE:C1:16
1540294719891,2018-10-23T11:38:39.891000Z,1053.5221877112983,192,-247,1006,2947,33.5,987.1,27.32,EE:B4:42:EE:C1:16
1540294724875,2018-10-23T11:38:44.875000Z,1054.497510665625,203,-266,1000,2953,33.5,987.09,27.32,EE:B4:42:EE:C1:16
1540294729905,2018-10-23T11:38:49.904999Z,1051.3120374084947,229,-304,980,2953,33.5,987.09,27.32,EE:B4:42:EE:C1:16
1540294735345,2018-10-23T11:38:55.345000Z,1059.928771191725,242,-314,983,2953,33.5,987.09,27.32,EE:B4:42:EE:C1:16
1540294740445,2018-10-23T11:39:00.444999Z,1055.1724977462216,203,-276,998,2947,33.5,987.09,27.32,EE:B4:42:EE:C1:16
1540294745615,2018-10-23T11:39:05.615000Z,1059.8348928017042,204,-275,1003,2953,33.5,987.08,27.32,EE:B4:42:EE:C1:16
1540294750605,2018-10-23T11:39:10.605000Z,1054.9398087094828,223,-295,988,2959,33.5,987.08,27.31,EE:B4:42:EE:C1:16
1540294755645,2018-10-23T11:39:15.644999Z,1055.2634742091664,226,-307,984,2965,33.5,987.08,27.31,EE:B4:42:EE:C1:16
1540294760691,2018-10-23T11:39:20.690999Z,1056.9933774626973,227,-309,985,2953,33.5,987.07,27.31,EE:B4:42:EE:C1:16
1540294765710,2018-10-23T11:39:25.710000Z,1057.1934543876064,219,-296,991,2953,33.5,987.07,27.31,EE:B4:42:EE:C1:16
1540294770721,2018-10-23T11:39:30.720999Z,1053.6152049016757,226,-298,985,2947,33.5,987.07,27.31,EE:B4:42:EE:C1:16
1540294775705,2018-10-23T11:39:35.704999Z,1052.5492862569429,232,-306,980,2959,33.5,987.08,27.31,EE:B4:42:EE:C1:16
1540294780765,2018-10-23T11:39:40.765000Z,1055.9171369004293,233,-304,984,2953,33.5,987.07,27.31,EE:B4:42:EE:C1:16